[[{"header":{"parameterUnit":"m.s-1","parameterCategory":1,"la1":30.2991,"la2":30.254,"lo1":-89.0895,"lo2":-89.0444,"dy":0.0017,"dx":0.0017,"nx":28,"ny":28,"refTime":"2025-05-24T03:00:00:Z","depth":0,"parameterNumber":2,"parameterNumberName":"U-component_of_WINDS"},"data":[0,0,0,0,0,0,0,0,0,0,0,0,0,0,0,0,0,0,0,0,0,0,0,0,0,0,0,0,0,0,0,0,0,0,0,0,0,0,0,0,0,0,0,0,0,0,0,0,0,0,0,0,0,0,0,0,0,0,-1.7023,-1.7022,0,-1.6959,-1.6958,-1.6957,-1.689,-1.689,-1.6889,-1.6888,-1.682,-1.6819,-1.6818,0,0,0,0,0,0,0,0,0,0,0,0,0,-1.7089,-1.7088,-1.7023,-1.7022,-1.7022,-1.6959,-1.6958,-1.6957,-1.6891,-1.689,-1.6888,-1.6887,-1.682,-1.6819,-1.6818,0,0,0,0,0,0,0,0,0,0,0,0,0,-1.7046,-1.7087,-1.7023,-1.6981,-1.6977,-1.6959,-1.6958,-1.6957,-1.6891,-1.6889,-1.6888,-1.6887,-1.6821,-1.6819,-1.6818,-1.6836,0,0,-1.6814,-1.6813,0,0,0,0,0,0,0,0,-1.7048,-1.7043,-1.6988,-1.6984,-1.6979,-1.6931,-1.6956,-1.6916,-1.6891,-1.6923,-1.6888,-1.6886,-1.6858,-1.6853,-1.6844,-1.6833,-1.683,-1.6813,-1.6813,-1.6812,-1.6812,0,0,0,0,0,0,0,-1.7051,-1.7046,-1.6997,-1.6987,-1.6982,-1.6965,-1.6957,-1.6948,-1.6899,-1.692,-1.6915,-1.6909,-1.6855,-1.6846,-1.6842,-1.6829,-1.6813,-1.6812,-1.6811,-1.6811,-1.683,-1.6831,0,0,0,0,0,0,-1.7061,-1.7049,-1.7,-1.6996,-1.7011,-1.6965,-1.6956,-1.6948,-1.6899,-1.689,-1.691,-1.6906,-1.6849,-1.6844,-1.684,-1.6857,-1.6812,-1.6811,-1.681,-1.6829,-1.683,-1.6832,0,0,0,0,0,0,-1.7062,-1.7057,-1.7002,-1.7021,-1.7013,-1.6965,-1.6956,-1.6947,-1.6938,-1.6891,-1.6882,-1.6909,-1.6848,-1.6842,-1.6838,-1.6854,-1.681,-1.6809,-1.6827,-1.6829,-1.6831,-1.6893,0,0,0,0,0,0,-1.7065,-1.7058,-1.7065,-1.7021,-1.7012,-1.7002,-1.6957,-1.6947,-1.6936,-1.693,-1.6888,-1.688,-1.6846,-1.684,-1.6836,-1.6851,-1.6808,-1.6825,-1.6828,-1.683,-1.6889,-1.6897,-1.6904,0,0,0,0,0,-1.7067,-1.7084,-1.7065,-1.706,-1.7019,-1.7003,-1.6997,-1.6958,-1.6937,-1.6943,-1.6913,-1.6881,-1.6854,-1.684,-1.6835,-1.685,-1.6824,-1.6827,-1.683,-1.6886,-1.6896,-1.6904,0,0,0,0,0,0,-1.713,-1.7078,-1.7056,-1.706,-1.7036,-1.6992,-1.6998,-1.697,-1.6951,-1.6946,-1.6899,-1.689,-1.6891,-1.6871,-1.6857,-1.6865,-1.6834,-1.6836,-1.6879,-1.6887,-1.6894,-1.6898,-1.6806,0,0,0,0,0,-1.7144,-1.7136,-1.7091,-1.7099,-1.7088,-1.7045,-1.7037,-1.7009,-1.6983,-1.6972,-1.6942,-1.6917,-1.6903,-1.6894,-1.6878,-1.6887,-1.6877,-1.6895,-1.6902,-1.6908,-1.691,-1.6913,-1.692,-1.6842,-1.6842,-1.6842,0,0,-1.7174,-1.7144,-1.7141,-1.711,-1.7089,-1.7081,-1.7037,-1.703,-1.7024,-1.6971,-1.6965,-1.6943,-1.6912,-1.6914,-1.6914,-1.6897,-1.693,-1.6912,-1.6917,-1.6916,-1.6917,-1.6924,-1.6931,-1.6844,-1.6844,-1.6843,0,0,-1.7222,-1.72,-1.7203,-1.7183,-1.7152,-1.7123,-1.7125,-1.7084,-1.7067,-1.7061,-1.7022,-1.7013,-1.699,-1.6969,-1.6956,-1.6999,-1.6968,-1.6995,-1.7032,-1.7035,-1.7041,-1.7046,-1.7061,-1.7066,-1.6998,-1.6998,-1.6998,0,-1.7262,-1.7249,-1.7209,-1.7205,-1.7192,-1.7145,-1.7148,-1.713,-1.7095,-1.7087,-1.7069,-1.7039,-1.7015,-1.7012,-1.7023,-1.7014,-1.7013,-1.6999,-1.7044,-1.7048,-1.7053,-1.7066,-1.7071,-1.7001,-1.7001,-1.7,-1.7,0,-1.7299,-1.7291,-1.7298,-1.7265,-1.7254,-1.7253,-1.7213,-1.7206,-1.718,-1.7154,-1.7149,-1.7119,-1.7096,-1.7094,-1.7068,-1.7087,-1.7077,-1.7053,-1.702,-1.7064,-1.7075,-1.708,-1.7006,-1.7005,-1.7004,-1.7003,0,0,-1.7383,-1.733,-1.7333,-1.7318,-1.7281,-1.7273,-1.7271,-1.7249,-1.7244,-1.7222,-1.7218,-1.72,-1.7177,-1.7162,-1.7134,-1.7137,-1.7172,-1.7111,-1.711,-1.7123,-1.7191,-1.7209,-1.7215,-1.7153,-1.7154,-1.7155,-1.7193,0,-1.7425,-1.7418,-1.7382,-1.7386,-1.7377,-1.7333,-1.7331,-1.7308,-1.7284,-1.7273,-1.7246,-1.7234,-1.7205,-1.7195,-1.7197,-1.7168,-1.7185,-1.7165,-1.7148,-1.7148,-1.7155,-1.7221,-1.724,-1.7278,-1.7197,-1.7198,-1.7199,0,-1.7471,-1.7452,-1.7455,-1.7418,-1.7413,-1.7412,-1.7389,-1.738,-1.7353,-1.7335,-1.732,-1.7288,-1.7284,-1.7255,-1.7247,-1.7234,-1.7226,-1.7211,-1.7211,-1.7206,-1.7175,-1.7217,-1.7289,-1.7294,-1.7206,-1.7205,-1.7204,0,-1.7531,-1.7507,-1.7505,-1.7494,-1.7451,-1.7451,-1.7433,-1.7405,-1.7394,-1.7375,-1.7368,-1.7348,-1.7337,-1.7323,-1.7287,-1.727,-1.7283,-1.7252,-1.7268,-1.7269,-1.727,-1.727,-1.734,-1.7268,-1.7268,-1.7268,-1.7268,0,-1.7579,-1.7582,-1.7531,-1.753,-1.7532,-1.7492,-1.7495,-1.7473,-1.7449,-1.7442,-1.7404,-1.7399,-1.7353,-1.7343,-1.7315,-1.7313,-1.7308,-1.7293,-1.7286,-1.7296,-1.7297,-1.7288,-1.7284,-1.727,-1.7269,-1.7269,-1.7269,0,-1.7645,-1.7611,-1.7606,-1.7567,-1.7557,-1.756,-1.7526,-1.7523,-1.7498,-1.749,-1.7486,-1.7446,-1.7432,-1.7396,-1.7372,-1.7354,-1.7358,-1.7345,-1.7367,-1.7362,-1.738,-1.7378,-1.7444,-1.745,-1.7376,-1.7377,-1.7378,0,-1.7678,-1.7679,-1.764,-1.7633,-1.7617,-1.7607,-1.7596,-1.7557,-1.7547,-1.7518,-1.7518,-1.7501,-1.7485,-1.7465,-1.7433,-1.7415,-1.74,-1.7425,-1.7397,-1.7408,-1.7399,-1.7399,-1.7398,-1.7431,-1.7432,-1.7432,-1.7433,0,-1.7738,-1.7722,-1.7708,-1.7688,-1.7677,-1.766,-1.764,-1.7637,-1.7593,-1.7585,-1.757,-1.7558,-1.7535,-1.7518,-1.7495,-1.7476,-1.7447,-1.7443,-1.7445,-1.7454,-1.7466,-1.7459,-1.7382,-1.744,-1.744,-1.7439,-1.7439,-1.7438,-1.7787,-1.7786,-1.7759,-1.7745,-1.7726,-1.7709,-1.7705,-1.7679,-1.7667,-1.7644,-1.7623,-1.761,-1.7584,-1.755,-1.7534,-1.7524,-1.7508,-1.7512,-1.7513,-1.7514,-1.7518,-1.747,-1.7519,-1.7519,-1.7519,-1.7519,-1.7519,0,-1.7844,-1.7825,-1.7813,-1.7787,-1.7776,-1.7751,-1.7729,-1.7721,-1.7711,-1.7689,-1.7675,-1.7658,-1.7642,-1.761,-1.7592,-1.7589,-1.7576,-1.7586,-1.7584,-1.758,-1.7533,-1.7532,-1.7597,-1.7597,-1.7597,-1.7597,-1.7597,-1.7597,-1.7873,-1.787,-1.785,-1.7838,-1.7818,-1.7806,-1.7795,-1.7779,-1.7762,-1.7745,-1.7732,-1.7711,-1.7685,-1.7665,-1.7649,-1.764,-1.7634,-1.7648,-1.7635,-1.7591,-1.7584,-1.7577,-1.7575,-1.7648,-1.7648,-1.7682,-1.7683,-1.7683]},{"header":{"parameterUnit":"m.s-1","parameterCategory":1,"la1":30.2991,"la2":30.254,"lo1":-89.0895,"lo2":-89.0444,"dy":0.0017,"dx":0.0017,"nx":28,"ny":28,"refTime":"2025-05-24T03:00:00:Z","depth":0,"parameterNumber":3,"parameterNumberName":"V-component_of_WINDS"},"data":[0,0,0,0,0,0,0,0,0,0,0,0,0,0,0,0,0,0,0,0,0,0,0,0,0,0,0,0,0,0,0,0,0,0,0,0,0,0,0,0,0,0,0,0,0,0,0,0,0,0,0,0,0,0,0,0,0,0,3.9692,3.9691,0,3.967,3.967,3.967,3.9695,3.9696,3.9697,3.9698,3.967,3.9668,3.9667,0,0,0,0,0,0,0,0,0,0,0,0,0,3.975,3.9749,3.9692,3.9691,3.9691,3.967,3.967,3.967,3.9695,3.9696,3.9697,3.9698,3.9671,3.9669,3.9667,0,0,0,0,0,0,0,0,0,0,0,0,0,3.9726,3.9749,3.9692,3.9701,3.9702,3.967,3.967,3.967,3.9695,3.9696,3.9697,3.9699,3.9671,3.9669,3.9666,3.9623,0,0,3.9659,3.9658,0,0,0,0,0,0,0,0,3.9727,3.9724,3.97,3.9701,3.9701,3.9687,3.9681,3.9654,3.9694,3.9697,3.9698,3.97,3.9674,3.9672,3.9664,3.9621,3.962,3.9659,3.9657,3.9656,3.9655,0,0,0,0,0,0,0,3.9729,3.9725,3.9683,3.97,3.97,3.9705,3.9704,3.9676,3.9678,3.9697,3.9699,3.9696,3.9675,3.9666,3.9664,3.962,3.9659,3.9657,3.9655,3.9654,3.9541,3.954,0,0,0,0,0,0,3.973,3.9726,3.9684,3.9682,3.9718,3.9703,3.9701,3.969,3.9678,3.9678,3.9695,3.9698,3.967,3.9666,3.9663,3.9612,3.9656,3.9654,3.9652,3.9543,3.9541,3.9539,0,0,0,0,0,0,3.9732,3.9726,3.9685,3.9705,3.97,3.9701,3.9688,3.9689,3.9681,3.9677,3.9677,3.9687,3.9671,3.9666,3.9633,3.9611,3.9653,3.9651,3.9544,3.9542,3.954,3.9508,0,0,0,0,0,0,3.9733,3.9727,3.9711,3.9704,3.9699,3.9656,3.9687,3.9687,3.9677,3.968,3.9669,3.9668,3.9672,3.9637,3.9631,3.9608,3.9649,3.9546,3.9543,3.9541,3.9511,3.9505,3.95,0,0,0,0,0,3.9735,3.9701,3.971,3.9705,3.9679,3.9655,3.9652,3.9658,3.9675,3.9659,3.9657,3.9668,3.9615,3.9633,3.9627,3.9603,3.9548,3.9544,3.9541,3.9514,3.9506,3.95,0,0,0,0,0,0,3.9702,3.97,3.971,3.9673,3.9664,3.9659,3.9639,3.965,3.9634,3.9637,3.9645,3.9642,3.9607,3.9602,3.9622,3.9561,3.9584,3.9579,3.9565,3.9558,3.9553,3.9554,3.9647,0,0,0,0,0,3.9691,3.9673,3.9672,3.9639,3.9635,3.9638,3.9627,3.9633,3.9624,3.9619,3.9615,3.9603,3.9584,3.9571,3.9553,3.9511,3.9509,3.9492,3.9486,3.9482,3.9477,3.9455,3.9448,3.9528,3.9528,3.9528,0,0,3.9667,3.9664,3.9651,3.9633,3.9627,3.9607,3.9634,3.9611,3.9597,3.9615,3.9585,3.9581,3.9569,3.9532,3.9515,3.9526,3.9455,3.9477,3.9473,3.9471,3.9451,3.9444,3.9437,3.9526,3.9526,3.9526,0,0,3.9613,3.9609,3.9582,3.9576,3.9568,3.957,3.9564,3.9558,3.9557,3.9527,3.9541,3.9523,3.9489,3.948,3.9471,3.9417,3.9427,3.9411,3.9381,3.936,3.9353,3.9348,3.9329,3.9322,3.9406,3.9406,3.9406,0,3.9583,3.9556,3.9566,3.9544,3.9535,3.9554,3.9527,3.952,3.9505,3.9498,3.9511,3.9471,3.9464,3.9426,3.9413,3.9405,3.9398,3.9412,3.9354,3.9348,3.9343,3.9325,3.9318,3.9404,3.9404,3.9405,3.9405,0,3.952,3.9501,3.948,3.9469,3.9458,3.9432,3.9438,3.9426,3.9433,3.9434,3.9403,3.9396,3.9378,3.9369,3.9375,3.9332,3.9339,3.9353,3.9376,3.9334,3.9317,3.931,3.9401,3.9402,3.9403,3.9403,0,0,3.9443,3.944,3.9432,3.9428,3.9421,3.9405,3.9381,3.9365,3.9355,3.9344,3.9324,3.9296,3.931,3.93,3.9305,3.9287,3.9245,3.9303,3.9303,3.9293,3.9198,3.9187,3.9179,3.9253,3.9251,3.925,3.9199,0,3.939,3.9351,3.936,3.9321,3.9303,3.9322,3.9301,3.9294,3.9294,3.9279,3.9278,3.9259,3.9278,3.9273,3.9255,3.9254,3.9226,3.9258,3.9233,3.9232,3.9235,3.917,3.9159,3.9111,3.9192,3.9191,3.919,0,3.9322,3.9312,3.9272,3.9269,3.9262,3.9243,3.9231,3.9216,3.9208,3.921,3.92,3.921,3.9185,3.9209,3.9176,3.9197,3.9187,3.9185,3.9184,3.9181,3.9208,3.9166,3.9095,3.9088,3.918,3.9181,3.9182,0,3.9271,3.9247,3.922,3.9215,3.9212,3.9198,3.9196,3.919,3.9181,3.9169,3.9163,3.9148,3.9139,3.9127,3.9132,3.9149,3.9097,3.9121,3.9097,3.9097,3.9084,3.9085,3.9011,3.9079,3.9079,3.9079,3.9079,0,3.921,3.9184,3.9197,3.918,3.9152,3.9164,3.9135,3.9135,3.913,3.9112,3.9127,3.911,3.9118,3.9102,3.9105,3.9077,3.9073,3.9073,3.9074,3.9072,3.9072,3.9065,3.9068,3.9077,3.9077,3.9078,3.9078,0,3.9147,3.9155,3.9127,3.9127,3.9127,3.9106,3.9105,3.9089,3.9092,3.907,3.9066,3.9069,3.9051,3.9055,3.9034,3.9037,3.9002,3.9007,3.9005,3.9006,3.8981,3.8984,3.8901,3.889,3.8964,3.8963,3.8963,0,3.9108,3.909,3.9089,3.908,3.9077,3.9061,3.9053,3.9063,3.9053,3.9044,3.9029,3.9013,3.9,3.897,3.897,3.8954,3.8959,3.8931,3.8957,3.8956,3.8959,3.896,3.8959,3.8926,3.8925,3.8924,3.8924,0,3.9038,3.9043,3.9031,3.9021,3.9011,3.9002,3.8995,3.8986,3.8996,3.8984,3.8967,3.8958,3.8938,3.8922,3.8908,3.8904,3.8915,3.8916,3.891,3.8907,3.8907,3.8907,3.8991,3.8918,3.8918,3.8919,3.8919,3.8919,3.8986,3.8971,3.8969,3.8955,3.8952,3.8945,3.8931,3.8933,3.8919,3.8906,3.8912,3.8893,3.8887,3.887,3.8864,3.8849,3.8859,3.8849,3.8847,3.8844,3.8842,3.891,3.8846,3.8846,3.8846,3.8846,3.8847,0,3.8917,3.8917,3.8905,3.8896,3.8885,3.89,3.8893,3.8882,3.8866,3.886,3.8848,3.8829,3.8814,3.8813,3.8799,3.8786,3.8791,3.8782,3.8783,3.8782,3.8833,3.884,3.8778,3.8778,3.8778,3.8778,3.8778,3.8778,3.888,3.8856,3.8861,3.8835,3.8835,3.8817,3.8812,3.8806,3.8802,3.8781,3.8769,3.877,3.8766,3.8752,3.8738,3.8739,3.8732,3.8721,3.8723,3.8771,3.8778,3.8784,3.8791,3.872,3.872,3.8674,3.8673,3.8673]}]]